Voltar ao catálogo

GENA-OT-1

AtivoCiênciaSSO
NORAD 66774·PAYLOAD·🇩🇪 Germany

Lançado Nov 28, 2025 de Vandenberg Space Force Base

Loading…

Próximas Passagens (próximas 24 horas)

TLE

AtualizadoSource: Space-Track

Época: Sep 14, 2026, 03:42 UTC

1 66774U 25276DN  26257.15478526  .00004543  00000-0  20206-3 0  9991
2 66774  97.4132 329.7996 0000383 141.5080 218.6184 15.21993910 43979

Acompanhe GENA-OT-1 em tempo real com AllMySat

Download on the App Store